GFSMW_250_spd_216.txt.gz
Wind_Speed
39 36 31 28 27 27 27 28 29 29 28 24 30 30 34 39 40 43 41 35 33 38 40 38 43 44 43 36 33 32 32 33 37 42 45 42 41 38 38 40 41 38 43
43 41 38 34 31 31 32 32 34 35 35 31 29 31 34 37 42 44 44 42 38 35 36 40 41 42 40 40 35 32 32 33 34 39 45 46 44 45 46 44 45 45 44
52 47 42 39 37 36 36 35 36 37 37 39 36 35 34 36 40 43 42 45 44 40 38 37 38 42 40 36 38 36 29 34 33 35 41 42 45 48 51 53 58 60 58
58 52 47 44 42 41 40 38 39 40 40 40 39 39 39 41 40 41 42 43 45 46 41 35 38 40 41 37 37 37 34 36 35 32 43 41 46 49 53 56 62 67 70
64 59 54 49 49 48 48 43 43 43 43 43 41 41 42 44 45 46 46 45 43 44 46 41 42 41 43 40 40 43 37 37 40 40 47 42 45 48 55 59 63 67 74
68 64 59 57 58 59 55 50 48 48 48 48 48 48 47 47 45 46 48 46 43 46 44 44 44 46 47 44 43 43 41 44 46 49 49 50 51 54 59 60 62 69 75
70 68 66 64 65 66 63 58 57 56 55 54 52 52 52 50 46 45 48 50 50 49 52 49 48 52 49 47 43 41 42 43 48 55 56 51 62 62 62 62 63 67 71
74 74 74 71 70 70 70 66 64 63 62 60 58 57 55 54 50 47 48 52 54 55 56 54 56 58 52 51 48 46 48 48 52 55 51 51 72 63 65 65 65 68 66
79 80 80 76 75 76 76 73 68 68 66 65 64 63 62 58 55 52 52 54 54 56 57 57 57 58 57 55 55 53 53 53 59 60 49 66 69 69 70 71 69 67 70
84 82 81 78 79 82 83 80 75 73 71 70 69 66 65 63 62 59 59 58 56 56 57 60 57 60 59 57 61 61 58 61 66 66 65 71 74 71 73 74 75 76 76
77 78 79 77 78 84 84 82 80 77 76 72 70 69 68 67 67 65 63 62 61 61 62 61 63 65 63 62 65 65 66 69 72 71 74 76 75 77 78 79 77 81 83
73 71 73 73 76 83 85 81 78 78 75 74 72 71 72 72 69 68 66 67 67 66 64 64 71 68 67 68 69 71 74 76 78 79 80 80 78 80 80 78 84 89 86
80 75 72 73 75 79 82 79 76 76 76 76 74 73 71 72 71 69 70 69 69 70 67 71 72 73 73 73 74 79 79 81 83 87 83 83 86 82 80 87 92 88 89
83 76 72 73 75 76 77 77 76 77 76 74 72 72 73 70 67 66 68 69 68 69 72 75 78 78 78 78 80 84 85 88 87 87 86 88 85 84 90 96 91 90 89
85 78 77 76 76 76 77 76 75 76 76 73 72 72 70 69 69 70 72 71 71 75 78 81 83 83 83 83 88 89 90 93 91 89 89 88 89 96 99 93 92 91 89
91 89 86 83 79 75 75 75 76 76 77 78 76 77 77 76 76 76 74 75 79 83 84 87 87 87 87 91 94 96 96 94 93 90 91 94 101 103 96 91 92 90 89
105 104 98 92 89 86 84 83 82 82 80 82 80 80 80 81 83 82 84 87 90 92 93 91 90 91 93 97 99 100 97 97 93 92 99 104 102 98 92 91 91 92 97
112 111 106 103 96 93 92 90 88 87 87 87 87 89 91 92 93 95 97 97 97 96 96 93 94 97 99 101 101 100 99 93 95 102 103 103 101 96 94 95 99 103 105
113 114 114 112 106 102 100 101 99 96 98 100 99 100 102 103 102 101 99 99 100 96 96 101 101 101 103 103 103 97 94 102 108 103 103 104 100 100 100 102 105 108 110
117 119 125 122 114 109 108 107 105 106 107 106 105 104 103 102 103 103 102 102 102 103 104 105 103 104 105 102 97 99 108 111 109 110 103 104 103 106 111 110 110 112 117
123 125 128 128 124 119 115 114 113 113 112 109 107 106 107 107 107 106 107 106 105 107 108 107 106 103 101 104 107 114 114 115 108 110 107 107 108 114 115 116 117 117 118
124 123 121 121 120 118 116 114 114 114 113 113 112 111 110 109 108 107 107 109 110 108 108 105 104 107 114 117 117 115 112 111 112 110 109 114 117 119 121 120 120 120 121
121 119 118 117 117 119 119 120 123 121 119 116 111 108 109 110 112 114 112 113 110 109 112 115 118 118 119 116 116 115 115 113 113 115 119 122 125 122 123 124 124 124 128
124 121 122 122 122 121 121 122 121 121 118 118 116 118 119 118 116 116 116 118 119 120 120 119 122 118 117 120 118 117 116 118 121 124 127 126 126 126 126 128 130 131 129
125 125 125 125 127 128 129 128 126 126 124 124 124 125 124 122 122 122 120 121 122 121 120 119 121 123 119 120 122 122 125 128 128 127 127 127 127 128 131 132 130 127 126
124 129 131 133 132 132 132 131 129 128 128 127 128 127 127 126 125 125 123 121 124 125 121 123 125 126 125 127 129 127 125 128 127 126 128 129 130 132 130 129 128 127 128

GFSMW_250_spd_219.txt.gz
Wind_Speed
48 40 41 37 34 33 32 29 29 29 29 28 26 27 28 27 29 31 33 30 32 35 36 37 36 36 28 30 31 33 34 34 30 31 33 34 35 37 33 36 40 42 45
52 47 45 44 41 37 36 36 36 34 33 32 32 30 32 31 32 33 33 34 33 34 37 38 39 37 35 28 28 27 33 35 35 34 35 39 40 43 38 37 39 41 46
60 55 52 49 46 45 42 40 40 38 38 36 36 34 36 35 37 38 38 37 37 34 36 40 41 40 39 35 31 33 32 34 36 33 35 38 42 48 49 45 46 47 52
67 62 60 54 52 51 48 45 43 42 40 41 39 38 38 40 40 41 40 41 41 41 37 39 42 41 41 40 38 38 38 36 33 34 39 45 50 55 52 51 53 51 60
70 70 66 61 55 55 55 52 50 47 46 44 44 42 41 41 43 43 43 42 42 44 43 40 43 44 42 44 44 43 41 41 40 35 37 45 49 52 53 53 58 56 63
75 75 73 68 62 61 60 59 58 52 52 51 51 49 47 47 46 46 45 45 46 46 46 45 45 46 50 50 48 48 48 46 44 39 41 46 47 54 59 58 52 54 70
78 74 73 72 71 70 67 65 63 58 59 58 58 56 54 53 52 51 50 50 49 48 49 47 46 44 46 50 55 57 52 50 46 46 43 47 44 50 59 46 50 57 81
85 77 75 76 79 78 74 71 68 65 65 65 66 63 61 61 59 59 56 55 54 51 50 49 50 50 48 47 51 59 54 53 55 54 53 51 50 51 33 53 67 75 79
74 80 82 81 82 83 81 78 75 72 71 72 72 69 67 67 65 64 60 60 60 56 54 54 55 54 52 54 55 57 57 57 61 60 57 56 56 52 55 55 72 74 77
70 67 67 73 85 85 82 81 80 79 78 78 76 73 72 70 69 66 67 66 63 60 60 58 59 58 59 60 59 58 59 61 65 62 61 62 61 63 64 71 75 77 76
74 73 68 66 69 73 78 83 85 83 82 81 78 75 74 74 72 71 68 66 64 63 62 62 62 62 62 62 62 62 60 66 67 67 68 68 69 73 75 79 80 77 76
77 76 74 72 69 67 68 72 74 78 80 78 78 77 75 73 71 68 68 67 67 65 64 63 64 66 65 65 63 62 66 70 73 73 73 74 76 80 84 87 82 82 83
85 83 82 78 75 75 75 76 74 70 68 68 70 70 70 69 70 70 69 68 66 66 64 64 67 69 67 65 65 67 73 77 77 77 77 79 82 86 88 88 85 86 84
94 91 87 81 80 79 78 78 77 76 73 73 75 74 73 73 74 72 71 70 68 66 67 71 72 71 69 70 71 78 81 83 84 81 82 85 88 91 92 92 90 87 90
101 98 92 89 87 85 85 85 83 79 77 76 78 78 75 75 74 72 73 72 73 75 76 77 74 72 72 76 84 86 88 89 87 86 85 90 92 95 95 94 91 92 102
106 102 101 100 96 93 93 90 88 84 81 79 77 76 75 75 76 76 75 77 78 78 78 78 77 78 82 87 91 92 93 93 90 88 94 96 96 97 97 92 95 107 107
110 107 105 100 97 99 99 94 90 87 84 82 81 82 79 79 77 76 80 84 88 88 85 82 85 89 94 96 96 97 96 91 93 95 99 99 99 96 93 98 109 110 105
111 109 105 100 97 97 95 93 93 92 89 88 89 91 92 92 95 94 95 94 92 89 89 92 97 99 99 100 99 97 97 99 99 101 102 100 99 98 102 111 108 111 112
115 113 109 106 105 104 101 100 102 101 99 100 103 104 105 102 101 101 99 97 97 98 101 103 105 105 103 101 102 103 102 100 102 103 101 104 106 110 113 115 113 113 114
117 118 118 119 118 116 113 113 114 112 111 109 109 109 108 107 109 108 107 107 107 111 111 110 110 106 105 104 103 102 103 106 109 108 106 108 114 116 119 117 117 116 117
125 125 124 124 123 122 121 122 122 119 118 116 117 116 115 114 115 114 114 112 112 113 112 108 107 107 106 104 105 108 109 109 109 112 117 119 120 120 120 119 121 121 117
132 129 128 128 127 128 127 125 121 117 119 120 119 117 117 118 119 117 114 112 111 111 109 108 110 108 109 108 110 113 116 117 118 119 120 121 121 120 120 124 122 123 119
131 132 133 130 128 129 127 127 126 125 125 124 119 116 115 115 115 115 116 113 113 118 116 115 114 114 116 120 122 122 122 122 123 124 124 124 126 124 126 126 121 121 124
134 134 131 128 126 126 127 125 127 128 128 126 123 123 125 126 126 125 122 119 116 118 120 121 122 123 125 126 126 126 127 125 127 125 128 127 127 128 125 123 124 128 128
131 134 135 133 131 129 128 128 127 127 126 125 125 126 127 128 128 126 125 123 122 124 125 124 126 129 129 130 132 130 129 130 130 128 125 127 127 127 127 128 131 129 127
126 127 130 132 134 133 132 129 129 128 128 128 129 131 129 129 131 131 130 130 132 133 134 135 135 132 132 131 133 129 129 130 129 129 128 128 128 129 130 130 127 127 126

GFSMW_250_spd_225.txt.gz
Wind_Speed
51 53 52 48 44 43 42 41 38 34 32 33 30 30 30 29 27 25 23 23 23 25 26 28 30 31 31 30 30 29 26 27 29 30 33 33 29 30 29 30 30 33 34
55 55 57 54 50 48 47 47 46 41 39 38 36 37 35 34 32 31 29 30 31 31 31 32 32 34 36 35 34 33 29 28 31 33 34 36 38 37 36 34 36 37 39
59 60 61 59 55 55 54 52 50 48 45 44 42 42 41 39 38 35 34 34 36 37 37 37 38 37 36 39 38 36 31 31 32 35 38 42 45 40 41 37 39 43 41
65 64 65 64 61 62 60 56 55 52 51 51 51 49 49 47 44 41 41 40 40 41 41 42 42 43 41 42 43 42 32 32 33 34 38 40 46 48 45 43 44 44 42
63 68 71 70 68 67 66 63 60 58 59 59 57 56 54 54 52 49 48 46 46 46 46 45 46 48 46 45 44 44 42 38 38 37 37 38 42 48 44 46 44 44 44
59 65 73 74 75 75 71 70 66 64 64 66 63 64 61 60 59 57 55 54 53 52 51 50 49 50 50 48 46 46 45 44 42 40 38 39 41 43 45 45 49 47 47
61 62 67 73 78 79 78 75 73 71 71 71 68 69 66 64 65 65 63 60 59 59 58 57 57 55 54 50 48 48 48 47 47 46 42 38 40 42 47 49 49 49 48
67 67 65 69 77 80 79 77 76 76 77 77 75 73 71 68 68 70 69 65 63 64 62 63 62 60 57 51 51 52 52 49 49 50 45 43 43 46 43 48 49 54 53
79 74 70 69 74 72 71 73 74 77 77 77 76 75 75 73 71 73 71 68 67 66 65 66 65 61 58 57 56 54 53 51 53 53 49 43 46 47 48 47 53 56 55
88 83 77 76 77 72 68 64 64 66 71 73 74 77 78 78 76 76 75 73 71 67 65 65 65 62 61 58 57 55 53 55 56 56 53 51 47 52 52 54 58 60 61
91 92 90 84 78 78 73 69 68 67 67 65 64 65 69 70 69 69 68 66 62 58 57 56 57 56 55 55 55 55 57 59 59 57 57 56 55 56 61 60 61 64 66
98 97 94 94 85 83 82 76 75 74 73 70 67 64 65 63 60 60 57 55 53 54 54 54 55 54 55 57 59 61 63 62 61 59 59 60 61 65 67 67 66 70 76
104 102 99 97 91 89 88 85 81 80 82 78 75 72 72 70 66 64 62 61 60 60 59 60 61 61 63 64 65 67 67 65 63 62 66 65 68 75 78 76 75 78 81
107 105 102 100 96 92 90 88 89 87 86 85 81 77 78 77 74 71 68 70 70 70 69 68 69 68 68 70 71 71 70 69 67 69 72 71 78 82 81 82 84 79 83
109 109 105 104 102 100 96 92 93 95 94 92 88 86 86 86 84 80 76 74 75 75 75 75 74 75 74 75 76 75 75 74 75 76 76 82 85 87 89 91 88 89 90
110 111 110 110 107 106 102 100 100 96 98 98 95 92 91 92 91 88 84 81 81 81 81 82 82 83 84 84 82 82 80 80 79 82 86 90 91 92 95 94 95 97 100
121 121 119 117 117 113 109 107 105 101 99 103 102 99 97 95 95 92 90 89 86 86 87 88 88 89 88 87 87 85 84 84 85 89 93 95 96 100 100 99 105 103 99
131 125 124 123 123 119 115 113 111 109 109 107 106 105 103 100 100 100 97 95 91 91 93 94 93 94 95 94 92 90 88 90 93 95 99 102 104 104 107 107 104 98 98
138 137 133 124 120 119 118 116 116 115 114 113 112 110 109 108 106 105 103 99 96 96 100 99 100 100 101 100 99 97 95 95 98 104 107 106 107 106 106 107 104 98 99
138 139 140 138 129 125 124 122 121 119 117 117 117 117 115 113 111 109 108 104 102 104 104 104 104 104 105 105 106 103 101 104 107 109 108 108 110 114 109 101 103 111 115
137 138 138 137 138 139 135 130 127 123 122 124 121 119 118 117 114 114 114 109 108 109 109 109 109 108 108 109 110 110 108 109 110 113 117 119 116 106 108 112 118 120 123
128 138 137 136 136 137 138 137 135 129 130 128 127 122 119 118 117 114 114 114 112 110 110 111 109 109 110 110 111 112 114 116 120 120 120 113 109 113 120 124 122 126 126
118 126 134 138 135 139 138 135 132 134 133 133 132 127 124 121 118 116 115 113 111 111 111 112 112 112 114 117 118 118 122 124 122 118 114 117 121 125 123 125 126 127 127
111 119 119 123 134 141 140 138 136 138 137 134 133 130 127 126 124 123 122 119 118 117 116 118 119 121 122 122 124 122 123 123 121 123 125 122 125 127 125 127 129 127 127
106 110 114 117 120 134 138 140 139 138 138 136 134 132 129 129 129 128 127 125 123 121 121 122 124 124 123 123 126 126 128 126 126 128 129 128 127 129 130 125 127 128 126
100 101 105 112 116 121 127 133 135 136 137 137 135 134 132 130 129 128 129 129 127 124 124 125 126 127 128 128 130 132 130 129 130 130 131 131 130 128 128 128 132 132 128

GFSMW_250_spd_228.txt.gz
Wind_Speed
55 51 48 51 49 46 47 46 40 40 39 36 33 31 30 29 27 28 27 26 25 23 23 23 23 25 27 29 29 31 36 35 26 27 27 27 27 30 33 36 39 36 33
61 58 57 54 55 54 51 52 50 46 44 41 39 38 36 35 34 34 32 32 31 30 30 29 29 30 31 31 32 36 36 37 36 32 33 32 32 32 38 36 37 41 38
65 64 63 60 61 60 59 58 55 52 49 46 43 44 43 41 41 39 38 38 38 37 37 37 35 35 34 36 37 37 37 37 37 34 34 34 35 34 34 37 39 38 43
62 67 71 67 65 67 67 62 58 58 55 51 49 49 49 48 48 44 44 44 45 44 44 43 42 42 42 41 42 43 43 42 42 42 39 38 37 37 37 36 40 42 41
53 56 69 71 72 71 70 70 65 62 61 57 55 54 52 53 51 50 50 50 52 51 51 51 49 49 49 49 48 48 48 46 45 45 45 42 40 40 41 37 36 41 44
66 59 59 69 65 69 73 75 73 69 65 63 60 59 59 58 56 55 55 55 56 56 55 55 55 55 56 54 53 52 51 49 48 49 48 46 44 43 41 40 38 38 43
70 71 68 67 68 67 66 72 73 74 72 69 67 66 68 65 63 61 61 61 60 59 59 58 59 59 59 58 57 54 53 53 52 52 49 47 46 44 44 40 41 42 43
79 76 78 74 70 71 70 71 70 72 73 74 73 73 72 71 70 67 66 67 67 66 63 63 63 63 62 63 61 58 56 54 52 50 49 48 48 47 47 43 44 43 42
88 83 84 82 79 76 73 73 71 71 71 73 75 74 75 74 75 73 72 70 72 69 66 66 66 66 67 65 60 56 53 50 47 46 46 47 51 53 52 51 49 50 46
88 90 91 88 83 79 78 76 73 70 68 67 71 73 76 75 73 75 73 73 72 69 66 66 63 58 53 50 46 46 46 46 46 48 51 53 55 57 57 55 52 52 53
90 91 95 93 90 87 85 84 79 75 69 66 68 68 68 67 65 65 65 62 60 57 53 51 49 46 44 45 45 47 49 51 53 55 56 57 58 59 61 61 59 59 60
103 96 93 94 96 95 90 89 86 82 79 73 71 70 69 65 63 64 64 62 59 56 53 53 50 50 52 52 54 56 57 59 60 60 60 61 62 63 65 66 65 67 66
105 105 106 107 104 97 94 94 91 86 86 82 81 78 76 71 68 68 69 68 66 63 61 61 60 60 60 60 62 64 64 66 66 65 63 65 69 69 70 70 69 70 72
113 111 110 112 112 111 104 101 95 87 85 87 89 88 86 81 80 77 74 73 73 71 67 66 67 69 69 68 66 67 69 70 70 71 73 74 73 73 73 73 72 75 78
121 119 117 117 115 115 114 110 103 98 94 94 95 93 93 91 88 85 83 80 77 75 74 73 73 73 75 75 76 75 74 75 77 79 80 80 79 79 79 78 80 82 85
129 124 120 118 116 117 116 114 111 107 103 102 102 101 99 98 93 88 86 84 83 80 79 80 79 79 80 81 83 84 82 82 82 83 86 87 87 88 84 84 85 88 89
136 137 129 124 121 120 118 116 114 112 110 104 103 104 103 103 100 96 92 92 88 87 88 87 86 85 84 86 87 89 90 90 89 91 91 91 95 94 93 93 93 94 94
133 134 139 139 132 128 125 119 118 116 114 111 110 110 108 106 104 102 99 96 92 92 92 90 90 88 87 90 93 94 96 96 97 98 96 99 100 100 101 100 100 97 99
133 136 139 138 140 138 134 130 122 120 117 115 114 113 111 110 109 109 107 102 100 99 100 99 97 95 94 97 100 100 100 102 103 103 103 106 106 106 104 100 98 102 104
127 133 137 137 137 137 137 135 126 121 118 120 117 118 119 117 116 113 110 107 106 105 104 103 100 99 99 102 106 106 106 106 107 108 109 109 112 108 106 107 108 109 112
125 129 132 135 138 139 139 137 134 131 127 122 120 118 120 121 121 120 115 113 112 110 109 106 104 104 105 107 107 108 108 109 111 110 112 113 113 113 111 112 114 116 118
116 121 125 125 135 139 139 137 135 136 135 134 131 125 120 121 122 121 119 116 113 112 112 111 108 107 109 110 109 108 109 111 111 113 116 117 116 115 117 118 119 118 118
115 114 115 118 121 132 137 135 136 136 138 137 136 136 133 128 124 120 118 117 114 114 114 114 112 111 112 113 114 113 114 116 115 114 117 120 121 121 121 121 123 121 123
113 109 109 111 115 118 123 131 137 138 135 135 139 140 139 136 135 132 129 126 121 120 119 118 117 117 117 117 116 116 117 118 119 121 124 127 126 124 126 123 125 127 127
100 104 104 104 107 116 116 120 127 135 139 140 140 139 139 139 140 137 134 130 128 127 124 123 122 122 121 121 122 122 123 124 125 126 126 127 129 129 128 128 127 129 127
93 92 91 97 104 112 112 116 120 123 130 135 138 140 141 141 141 141 138 135 131 130 128 125 125 123 124 125 125 126 126 128 130 130 129 128 131 133 130 130 128 129 128

GFSMW_250_spd_234.txt.gz
Wind_Speed
54 51 45 52 54 49 45 45 45 44 41 39 37 34 31 30 32 31 31 30 30 29 29 28 27 28 28 29 29 32 34 34 34 36 37 37 38 35 35 36 36 33 32
60 54 51 47 49 57 51 52 51 48 46 44 42 39 37 38 37 37 36 33 34 36 36 34 33 32 33 34 35 35 38 38 39 40 41 42 42 41 42 43 40 38 35
66 64 58 52 50 50 57 56 59 56 52 48 45 45 44 44 45 43 41 39 38 40 40 39 38 38 37 38 38 38 40 41 42 43 44 46 45 46 46 48 40 34 34
72 68 65 62 55 53 50 59 61 61 59 53 51 50 51 50 52 49 47 45 46 44 43 43 42 43 44 43 42 43 43 45 47 48 49 49 46 47 49 46 43 38 34
79 77 72 69 64 61 58 58 57 63 61 59 58 57 55 57 57 55 52 52 51 50 48 49 48 48 47 49 46 48 48 49 51 51 50 52 53 48 41 41 33 37 36
87 82 79 75 66 64 62 63 63 57 56 62 65 62 61 63 63 59 57 58 57 56 55 55 53 53 54 52 54 53 54 55 54 53 52 50 49 44 32 29 33 33 36
93 83 83 77 74 73 68 64 67 64 62 58 60 63 64 66 66 65 62 61 60 61 62 59 58 59 59 58 57 59 58 57 56 54 50 44 37 34 36 35 38 40 42
94 87 88 84 78 76 78 82 74 67 69 69 66 57 60 61 64 67 66 65 64 64 65 65 65 66 66 62 59 57 58 55 50 46 39 37 35 37 39 42 43 46 49
96 94 95 94 92 84 82 88 83 75 71 76 80 64 55 59 60 55 57 55 56 58 60 60 62 61 60 58 55 51 48 45 42 37 36 37 37 41 44 45 48 51 49
103 99 104 104 102 99 90 87 85 81 79 78 79 74 68 63 66 60 56 58 57 55 52 50 50 50 49 48 47 47 44 43 41 40 39 40 45 47 50 54 55 53 53
114 109 109 110 109 100 91 96 91 88 89 86 81 79 77 70 70 71 69 65 62 58 53 51 51 48 47 46 46 48 48 48 48 47 49 51 52 55 56 59 59 59 61
119 115 115 114 109 101 97 101 100 88 87 89 88 82 81 79 76 74 71 71 71 68 62 57 56 56 56 53 52 53 52 51 53 53 55 59 61 62 63 65 66 68 71
125 121 121 117 110 106 103 104 99 87 86 90 94 88 84 84 82 80 78 76 78 75 73 67 63 61 63 62 62 62 61 61 63 62 62 62 64 65 67 70 72 75 77
133 119 115 117 117 115 104 106 104 97 96 95 96 95 93 91 93 89 84 83 81 81 81 79 76 70 71 71 70 72 69 68 69 68 67 69 71 74 76 78 79 80 83
140 136 130 118 115 118 116 119 114 106 102 99 99 100 98 92 89 94 97 95 93 89 89 86 84 85 79 73 76 75 70 75 79 76 78 80 82 83 84 84 84 87 87
142 144 145 142 133 127 119 115 118 114 109 103 102 105 104 101 99 96 93 96 98 94 95 94 91 90 85 80 86 87 79 80 83 82 85 86 87 88 89 91 90 91 92
138 139 147 149 147 142 131 115 112 115 117 112 113 113 110 106 105 101 98 95 94 94 92 91 91 94 93 92 97 93 87 86 86 88 89 89 89 90 92 93 93 94 97
142 142 142 146 148 148 145 142 131 117 117 122 125 121 118 115 111 108 101 101 100 103 103 101 101 100 98 100 100 98 95 93 93 92 91 92 95 96 95 97 96 99 105
139 133 137 140 139 143 144 148 149 140 129 123 121 120 118 119 121 117 115 108 104 106 109 107 104 106 102 105 105 104 102 101 101 100 99 99 100 101 102 106 104 106 108
138 136 137 135 134 133 137 142 145 148 146 143 139 129 123 119 119 120 121 122 122 122 121 117 108 105 107 112 109 109 109 110 108 109 106 105 106 104 107 104 107 107 108
126 130 136 139 139 139 144 146 143 143 145 149 148 147 145 142 133 126 121 116 115 113 113 113 114 115 116 116 116 113 113 111 108 107 106 105 103 102 104 106 107 107 106
114 121 129 133 135 137 139 141 141 140 145 145 144 146 146 146 146 145 143 141 135 132 129 123 116 112 111 113 113 112 110 109 107 107 107 105 104 103 103 103 103 105 109
107 107 112 120 127 130 135 141 136 137 143 142 140 141 142 142 144 145 144 142 141 137 134 133 130 128 127 125 123 116 110 106 106 105 106 107 105 105 107 107 105 108 114
95 100 101 104 109 115 125 132 134 136 140 139 137 137 136 137 140 142 140 139 140 139 137 135 134 132 132 130 129 128 127 126 124 123 122 119 114 116 113 115 118 121 121
82 89 92 95 98 103 103 109 120 126 129 135 136 135 135 133 132 135 135 137 135 135 136 134 132 130 130 129 129 127 125 122 120 125 121 121 120 121 123 123 121 120 122
71 76 77 79 87 95 96 98 103 110 117 123 127 129 130 131 129 130 130 132 132 133 134 134 132 128 126 127 126 124 123 121 120 122 126 126 127 126 126 127 126 125 127

GFSMW_250_spd_237.txt.gz
Wind_Speed
57 55 51 45 40 40 52 52 48 46 42 39 36 33 30 31 32 30 30 28 27 28 30 29 29 28 28 28 29 29 30 31 32 31 32 34 35 35 34 35 37 39 37
59 60 55 55 45 39 41 54 55 52 48 47 44 39 36 36 37 38 34 32 32 33 34 33 33 35 35 35 35 36 37 37 37 35 37 38 40 45 44 40 40 40 36
70 64 62 60 59 49 43 45 52 57 56 54 49 45 43 43 43 43 41 38 39 40 40 39 39 39 40 40 39 39 41 41 41 40 40 43 44 47 45 46 42 36 31
82 76 69 66 68 60 52 48 51 50 55 60 55 51 49 48 51 48 47 45 44 46 45 44 45 45 45 45 45 44 45 45 46 45 46 48 48 49 50 46 39 28 22
84 79 78 77 74 71 60 60 55 54 54 52 59 58 55 56 57 54 52 51 50 50 50 50 51 51 50 50 50 49 49 50 51 50 50 52 52 50 45 41 31 30 31
96 90 81 80 80 81 72 69 64 61 62 54 49 51 61 62 61 61 58 57 55 55 55 58 57 56 55 55 55 55 55 55 55 57 56 53 52 49 40 33 27 28 30
101 97 88 88 91 88 82 76 70 65 66 64 57 56 54 57 62 64 62 62 61 60 61 62 61 60 60 59 58 60 60 61 61 58 54 48 44 40 36 31 33 34 36
100 98 92 91 97 96 89 83 75 70 68 65 64 63 62 58 56 54 57 62 64 65 66 67 65 63 62 63 62 59 56 55 52 48 45 39 36 34 33 34 36 39 42
100 100 103 101 97 99 89 90 83 72 74 75 79 74 69 63 60 59 59 56 58 59 59 62 63 59 53 53 53 49 45 43 41 39 39 38 39 39 39 41 41 42 45
112 107 108 112 102 99 99 94 91 83 82 85 83 75 75 72 69 67 62 64 60 59 58 57 55 51 50 49 49 47 45 42 40 38 39 41 42 44 46 48 49 50 50
126 120 114 111 110 103 101 100 97 95 89 86 86 78 73 75 77 77 73 73 70 63 63 62 61 59 54 53 49 50 49 48 47 45 45 47 50 52 53 54 55 56 59
133 125 124 120 110 108 104 101 99 98 95 93 90 88 83 80 83 80 78 77 78 73 70 67 66 67 65 66 58 59 57 55 55 54 54 54 57 58 58 59 61 63 65
141 135 128 122 120 118 108 106 102 103 101 98 95 93 95 96 93 89 88 86 85 84 81 77 71 68 67 69 67 68 65 62 62 61 62 62 64 67 68 68 70 72 75
144 141 138 135 125 124 124 116 107 106 107 103 99 101 104 103 100 96 92 90 87 88 89 85 82 76 72 71 70 71 72 72 70 71 69 69 69 70 68 71 73 75 80
140 143 146 145 144 140 132 130 122 110 110 109 105 109 112 108 105 100 98 93 91 91 91 92 88 83 79 78 78 76 78 78 77 79 79 80 77 77 78 80 81 82 83
137 139 139 142 148 146 145 141 129 122 117 114 113 114 119 119 113 106 104 101 95 94 95 94 95 91 84 83 84 86 89 89 83 84 86 84 82 85 87 86 87 88 89
134 137 140 142 144 143 147 143 139 131 121 120 117 117 121 125 123 114 108 105 104 102 99 97 99 98 95 94 86 88 91 94 94 89 85 85 89 91 92 90 91 92 93
130 134 137 140 140 141 143 148 148 144 135 126 122 122 125 128 127 123 119 116 112 109 105 102 100 101 101 98 92 92 90 87 93 93 94 95 96 95 97 97 97 97 96
124 130 134 137 139 139 138 141 144 146 146 140 133 128 127 129 130 128 125 124 121 115 113 107 102 104 103 104 101 99 93 92 95 98 99 101 103 103 102 102 99 99 102
119 125 131 133 137 139 140 139 139 142 142 141 145 146 143 136 133 133 128 125 121 118 117 115 112 108 107 108 105 101 98 87 96 101 106 112 106 109 112 108 108 104 104
110 117 121 125 130 135 139 140 140 138 140 141 141 141 145 149 148 139 130 128 127 125 120 117 117 117 117 117 115 111 106 101 100 106 118 119 116 106 106 106 108 103 96
97 107 114 117 121 126 132 134 135 134 136 136 139 140 142 143 142 146 147 141 132 127 123 120 119 119 117 117 116 111 108 100 88 101 105 113 113 108 108 106 103 99 94
85 93 99 102 109 118 126 127 123 127 130 136 135 136 140 144 142 142 141 144 147 147 144 137 130 123 119 117 116 113 108 103 98 116 116 109 109 109 110 112 114 113 116
76 81 84 87 91 102 108 110 111 118 125 128 131 133 135 136 138 141 142 142 142 144 146 144 143 144 143 136 129 128 126 126 125 128 133 131 132 130 123 121 122 121 118
65 68 73 80 83 90 93 93 97 104 109 113 119 126 129 133 138 139 139 139 142 142 141 141 142 140 140 138 138 137 137 136 133 129 129 127 120 114 113 115 119 116 114
58 61 65 66 71 77 83 88 93 96 97 101 105 109 115 120 125 131 136 139 140 139 140 139 137 137 136 137 137 135 134 132 131 124 121 114 120 116 116 121 120 115 121